Location: Juzet
(42.9779°N, 0.7597°E)
Time: 02:57:29
(UTC+00:00)

Cosmos 2173 Rocket - Pass Details

Date: 14 July 2020
Orbit: 944 x 1001 km, 83.0° (Epoch: 04 August)

Event Time Altitude Azimuth Distance (km) Brightness Sun altitude
Exits shadow 01:43:02 40° 212° (SSW) 1,436 4.4 -21.4°
Maximum altitude 01:45:22 66° 280° (W) 1,079 4.1 -21.2°
Drops below altitude 10° 01:51:40 10° 2° (N) 2,752 7.3 -20.7°
Sets 01:54:13 0° 6° (N) 3,696 8.2 -20.5°
